Regional Weather Roundup
Issued by NWS

Home | Current Version | Previous Version | Text Only | Print | Product List | Glossary On
Versions: 1 2 3 4 5 6 7 8 9 10 11 12 13 14 15 16 17 18 19 20 21 22 23 24 25 26 27 28 29 30 31 32 33 34 35 36 37 38 39 40 41 42 43 44 45 46 47 48 49 50
000
ASUS45 KPSR 230810
RWRAZ

ARIZONA REGIONAL HOURLY WEATHER ROUNDUP
NATIONAL WEATHER SERVICE PHOENIX AZ
100 AM MST WED JUL 23 2014

NOTE: FAIR INDICATES FEW OR NO CLOUDS BELOW 12,000 FEET WITH NO
SIGNIFICANT WEATHER AND/OR OBSTRUCTIONS TO VISIBILITY.

AZZ001>003-036-230900-
NORTHWEST ARIZONA

CITY           SKY/WX    TMP DP  RH WIND       PRES   REMARKS
BULLHEAD CITY  CLEAR     93  28  10 CALM      29.85F
KINGMAN        CLEAR     79  30  16 CALM      30.10S
$$

AZZ004>008-015-016-018-230900-
NORTH CENTRAL ARIZONA

CITY           SKY/WX    TMP DP  RH WIND       PRES   REMARKS
GRAND CANYON   MOCLDY    58  41  53 CALM      30.38S HAZE
WILLIAMS       CLEAR     63  39  42 S7        30.45S
PRESCOTT       PTCLDY    72  43  35 CALM      30.24F
FLAGSTAFF      CLEAR     57  39  51 CALM      30.42S
PAYSON         PTCLDY    75  46  35 NE3       30.29S
PAGE           MOCLDY    87  36  16 W3        30.13S
$$

AZZ009>014-017-230900-
NORTHEAST ARIZONA

CITY           SKY/WX    TMP DP  RH WIND       PRES   REMARKS
WINSLOW        PTCLDY    81  46  29 SE8       30.24R
SAINT JOHNS    CLOUDY    74  51  44 E8        30.32S
WINDOW ROCK    PTCLDY    69  47  45 CALM      30.44F
SHOW LOW       CLOUDY    73  45  35 S12       30.38F
$$

AZZ023-230900-
GREATER PHOENIX AREA

CITY           SKY/WX    TMP DP  RH WIND       PRES   REMARKS
PHOENIX        MOCLDY    97  49  19 SW6       29.86S
BUCKEYE          N/A     90  48  24 NW3       29.88S
LUKE AFB       NOT AVBL
DEER VALLEY    PTCLDY    93  47  20 NE3       29.89S
SCOTTSDALE     PTCLDY    97  50  20 CALM      29.91S
MESA-GATEWAY   CLOUDY    95  41  15 CALM      29.92S
$$

AZZ027-028-230900-
SOUTHWEST MARICOPA COUNTY AND PINAL COUNTY

CITY           SKY/WX    TMP DP  RH WIND       PRES   REMARKS
CASA GRANDE    CLOUDY    97  48  19 W7        29.92S
$$

AZZ503-504-507>509-230900-
SOUTHEAST ARIZONA

CITY           SKY/WX    TMP DP  RH WIND       PRES   REMARKS
TUCSON         CLOUDY    91  57  31 SE21G30   30.06R
DAVIS-MONTHAN  CLOUDY    90  57  33 E28G41    30.04S
NOGALES        CLOUDY    83  56  39 SE6       30.18R
SIERRA VISTA   LGT RAIN  73  61  64 S15       30.26F
DOUGLAS        CLOUDY    75  60  59 E23G31    30.23F
SAFFORD        MOCLDY    81  59  47 S16       30.15F
$$

AZZ020-021-025-026-031-230900-
SOUTHWEST ARIZONA

CITY           SKY/WX    TMP DP  RH WIND       PRES   REMARKS
YUMA           CLEAR     92  41  17 CALM      29.82F
$$

CAZ031-033-041-043-047-048-061-230900-
SOUTHERN CALIFORNIA

CITY           SKY/WX    TMP DP  RH WIND       PRES   REMARKS
DOWNTOWN L.A.  CLEAR     70  59  68 CALM      29.99F
L.A. AIRPORT   CLEAR     68  61  78 S3        30.00F
SAN DIEGO      PTCLDY    70  63  78 NW3       30.02F
BURBANK        CLEAR     72  51  47 NW3       30.00F
ONTARIO        CLEAR     72  52  49 S3        30.02F
RIVERSIDE      CLEAR     72  51  47 W3        30.02F
PALM SPRINGS   CLEAR     88  51  28 CALM      29.88S
EL CENTRO NAS  CLEAR     87  45  23 W13       29.81F
IMPERIAL       CLEAR     88  45  22 W10       29.81S
BLYTHE         CLEAR     97  34  11 SW6       29.82F
NEEDLES        CLEAR     96  27   8 W5        29.86S
$$

NVZ020-UTZ003-230900-
SOUTHERN NEVADA-UTAH

CITY           SKY/WX    TMP DP  RH WIND       PRES   REMARKS
LAS VEGAS      CLEAR     90  27  10 S9        29.92S
SALT LAKE CITY PTCLDY    75  41  29 S8        30.09R
$$

NMZ009-TXZ055-230900-
NEW MEXICO-WEST TEXAS

CITY           SKY/WX    TMP DP  RH WIND       PRES   REMARKS
ALBUQUERQUE    PTCLDY    73  55  53 N5        30.34S
EL PASO        LGT RAIN  74  69  85 NW5       30.22R
$$


........................KEY........................
SKY/WX - SKY CONDITION/WEATHER
TMP    - TEMPERATURE IN FAHRENHEIT
DP     - DEW POINT IN FAHRENHEIT
RH     - RELATIVE HUMIDITY IN PERCENT
WIND   - DIRECTION AND SPEED IN MILES PER HOUR (MPH)
VRB    - VARIABLE WIND DIRECTION
PRES   - MEAN SEA LEVEL PRESSURE IN INCHES OF MERCURY
         F - FALLING PRESSURE   R - RISING PRESSURE
         S - STEADY PRESSURE
VSB    - VISIBILITY IN MILES
HX     - HEAT INDEX IN FAHRENHEIT
WCI    - WIND CHILL INDEX IN FAHRENHEIT
TC     - TEMPERATURE IN CELSIUS WHICH IS ALSO KNOWN AS
         TEMPERATURE IN CENTIGRADE
AFB    - AIR FORCE BASE
         LUKE AFB IS LUKE AIR FORCE BASE
         DAVIS-MONTHAN IS DAVIS-MONTHAN AIR FORCE BASE
NAS    - NAVAL AIR STATION
         EL CENTRO NAS IS EL CENTRO NAVAL AIR STATION
N/A    - NOT AVAILABLE



USA.gov is the U.S. government's official web portal to all federal, state and local government web resources and services.